Whidbey Island, WA
on Saturday, November 3, 2012

Saturday
Previous Day Next Day
Daily Summary
 ActualAverageRecord
Temperature
Mean Temperature °F °F  
Max Temperature 57°F 51°F 66°F (2010)
Min Temperature 51°F 38°F 25°F (2003)
Degree Days
Heating Degree Days 11    
Growing Degree Days4 (Base °F )  
Moisture
Dew Point 50°F   
Average Humidity 86    
Maximum Humidity 93    
Minimum Humidity 82    
Precipitation
Precipitation 0.03 in in in ()
Wind
Wind Speed 15 mph   
Max Wind Speed 23 mph   
Max Gust Speed 31 mph   
Visibility 10 miles   
Events Rain   
Averages and records for this station are not official NWS values.
Key: T is trace of precipitation, MM is missing value
Source: NWS Daily Summary
Seasonal Weather Averages
Time(PDT)TemperatureDew PointHumidity Pressure Visibility Wind DirectionWind SpeedGust SpeedPrecipitationEvents Conditions
12:56 AM 53.1°F 50.0°F 89% 29.94 in 10.0 miles SE 21.9 mph - 0.00 in   Mostly Cloudy
1:56 AM 54.0°F 50.0°F 86% 29.94 in 10.0 miles SE 23.0 mph 31.1 mph N/A   Overcast
2:56 AM 54.0°F 48.9°F 83% 29.94 in 10.0 miles SE 17.3 mph 24.2 mph N/A   Overcast
3:56 AM 54.0°F 48.9°F 83% 29.95 in 10.0 miles SSE 19.6 mph 28.8 mph N/A   Overcast
4:17 AM 53.6°F 48.2°F 82% 29.94 in 10.0 miles SE 18.4 mph - N/A   Overcast
4:56 AM 54.0°F 50.0°F 86% 29.95 in 10.0 miles SE 17.3 mph 24.2 mph N/A   Overcast
5:56 AM 54.0°F 50.0°F 86% 29.96 in 10.0 miles SE 21.9 mph 26.5 mph N/A   Overcast
6:56 AM 54.0°F 50.0°F 86% 29.97 in 10.0 miles SE 18.4 mph - N/A   Overcast
7:56 AM 55.0°F 50.0°F 83% 29.98 in 10.0 miles SE 11.5 mph 21.9 mph N/A   Overcast
8:56 AM 55.0°F 51.1°F 86% 29.99 in 10.0 miles SE 12.7 mph 19.6 mph N/A   Overcast
9:56 AM 55.9°F 51.1°F 84% 29.99 in 10.0 miles SE 9.2 mph - N/A   Overcast
10:56 AM 55.9°F 51.1°F 84% 30.00 in 10.0 miles SE 11.5 mph 18.4 mph N/A   Overcast
11:56 AM 55.9°F 51.1°F 84% 30.00 in 10.0 miles SE 17.3 mph - N/A   Overcast
12:56 PM 55.9°F 51.1°F 84% 30.01 in 10.0 miles South 16.1 mph 23.0 mph N/A   Overcast
1:16 PM 55.4°F 51.8°F 88% 30.00 in 10.0 miles South 11.5 mph 24.2 mph 0.00 in Rain Light Rain
1:56 PM 57.0°F 52.0°F 83% 30.01 in 10.0 miles SSE 12.7 mph - 0.00 in Rain Light Rain
2:09 PM 55.4°F 51.8°F 88% 30.00 in 10.0 miles SE 10.4 mph - 0.00 in   Overcast
2:56 PM 57.0°F 52.0°F 83% 30.02 in 10.0 miles SSE 9.2 mph - 0.00 in   Overcast
3:08 PM 57.2°F 51.8°F 82% 30.00 in 10.0 miles SE 11.5 mph - 0.00 in Rain Light Rain
3:38 PM 57.2°F 53.6°F 88% 30.01 in 10.0 miles SSE 12.7 mph - 0.00 in   Overcast
3:56 PM 57.0°F 52.0°F 83% 30.03 in 10.0 miles SSE 10.4 mph - 0.00 in   Overcast
4:56 PM 51.1°F 48.0°F 89% 30.06 in 10.0 miles WSW 3.5 mph - N/A   Overcast
5:56 PM 52.0°F 48.0°F 86% 30.09 in 10.0 miles WNW 6.9 mph - N/A   Overcast
6:38 PM 51.8°F 46.4°F 82% 30.09 in 10.0 miles Calm Calm - 0.00 in Rain Light Rain
6:56 PM 51.1°F 46.9°F 86% 30.11 in 10.0 miles Calm Calm - 0.00 in   Overcast
7:56 PM 52.0°F 48.0°F 86% 30.13 in 10.0 miles East 5.8 mph - N/A   Overcast
8:16 PM 51.8°F 48.2°F 88% 30.12 in 10.0 miles ESE 5.8 mph - 0.00 in Rain Light Rain
8:56 PM 52.0°F 48.0°F 86% 30.14 in 10.0 miles East 5.8 mph - 0.00 in   Overcast
9:24 PM 51.8°F 48.2°F 88% 30.15 in 10.0 miles East 3.5 mph - 0.00 in Rain Light Rain
9:56 PM 52.0°F 48.9°F 89% 30.17 in 10.0 miles NE 4.6 mph - 0.00 in Rain Light Rain
10:56 PM 52.0°F 50.0°F 93% 30.17 in 6.0 miles ESE 3.5 mph - 0.03 in Rain Light Rain
11:56 PM 52.0°F 50.0°F 93% 30.18 in 10.0 miles ESE 4.6 mph - 0.00 in Rain Light Rain
Moon Phase
Nov. 03 Nov. 06 Nov. 13 Nov. 20 Nov. 28
Sunrise:08:00 AM (PDT) Moon Rise:09:26 PM (PDT)11/3
Sunset:05:47 PM (PDT) Moon Set:12:16 PM (PDT)11/3

Copyright © 2014 The Weather Underground, Inc.